DW0148 Weather Reports


time (UTC)temp
C
wind
direction
speed
KPH
gust
KPH
rain 1hr
cm
rain 24hr
cm
rain mn
cm
humidity
%
barometer
mb
20170526184733 25 78 4.8 16.1 0.00 0.00 0.00 56 1016.3
20170526184232 25 195 6.4 20.9 0.00 0.00 0.00 57 1016.3
20170526183731 25 199 9.7 20.9 0.00 0.00 0.00 57 1016.6
20170526183230 25 195 3.2 12.9 0.00 0.00 0.00 60 1016.6
20170526182729 25 168 8.0 12.9 0.00 0.00 0.00 61 1016.6
20170526182228 25 50 6.4 12.9 0.00 0.00 0.00 59 1016.6
20170526181727 25 134 4.8 16.1 0.00 0.00 0.00 59 1016.9
20170526181226 25 190 4.8 16.1 0.00 0.00 0.00 57 1016.9
20170526180725 25 188 4.8 12.9 0.00 0.00 0.00 59 1016.9
20170526180224 25 169 4.8 11.3 0.00 0.00 0.00 56 1016.9
20170526175723 25 173 4.8 12.9 0.00 0.00 0.00 59 1016.9
20170526175223 25 188 6.4 12.9 0.00 0.00 0.00 59 1017.3
20170526174721 25 181 3.2 12.9 0.00 0.00 0.00 58 1017.3
20170526174221 25 155 4.8 12.9 0.00 0.00 0.00 58 1017.3
20170526173719 25 174 6.4 12.9 0.00 0.00 0.00 57 1017.6
20170526173218 25 145 1.6 12.9 0.00 0.00 0.00 58 1017.3
20170526172717 25 146 4.8 16.1 0.00 0.00 0.00 56 1017.6
20170526172215 24 236 1.6 16.1 0.00 0.00 0.00 60 1017.6
20170526171714 24 175 4.8 14.5 0.00 0.00 0.00 58 1017.6
20170526171213 24 139 4.8 11.3 0.00 0.00 0.00 56 1017.6
20170526170712 25 284 1.6 11.3 0.00 0.00 0.00 59 1017.6
20170526170210 24 175 3.2 11.3 0.00 0.00 0.00 61 1017.9
20170526165710 24 179 4.8 11.3 0.00 0.00 0.00 58 1017.9
20170526165209 24 142 3.2 9.7 0.00 0.00 0.00 58 1017.6
20170526164708 24 113 3.2 8.0 0.00 0.00 0.00 55 1017.6
20170526164207 24 250 3.2 8.0 0.00 0.00 0.00 55 1017.6
20170526163706 24 160 4.8 8.0 0.00 0.00 0.00 58 1017.6
20170526163205 24 290 3.2 12.9 0.00 0.00 0.00 56 1017.6
20170526162705 23 177 3.2 12.9 0.00 0.00 0.00 57 1017.6
20170526162203 23 20 1.6 17.7 0.00 0.00 0.00 59 1017.6
20170526161702 23 178 6.4 17.7 0.00 0.00 0.00 57 1017.6
20170526161201 23 189 3.2 16.1 0.00 0.00 0.00 58 1017.6
20170526160700 23 185 8.0 20.9 0.00 0.00 0.00 61 1017.3
20170526160159 23 168 9.7 20.9 0.00 0.00 0.00 59 1017.6
20170526155658 23 165 3.2 14.5 0.00 0.00 0.00 58 1017.3
20170526155157 23 66 3.2 12.9 0.00 0.00 0.00 60 1017.3
20170526154655 23 198 6.4 16.1 0.00 0.00 0.00 58 1017.3
20170526154155 23 153 3.2 16.1 0.00 0.00 0.00 58 1017.3
20170526153653 23 198 6.4 16.1 0.00 0.00 0.00 59 1017.3
20170526153153 23 114 3.2 6.4 0.00 0.00 0.00 59 1017.3
20170526152651 22 107 3.2 8.0 0.00 0.00 0.00 63 1017.3
20170526152150 22 72 3.2 8.0 0.00 0.00 0.00 61 1017.3
20170526151649 22 154 3.2 9.7 0.00 0.00 0.00 65 1017.6
20170526151148 22 201 3.2 9.7 0.00 0.00 0.00 65 1017.3
20170526150648 22 226 1.6 4.8 0.00 0.00 0.00 67 1017.3
20170526150147 22 299 1.6 4.8 0.00 0.00 0.00 67 1017.3
20170526145646 22 284 3.2 6.4 0.00 0.00 0.00 65 1017.3
20170526145145 22 279 3.2 6.4 0.00 0.00 0.00 65 1017.3
20170526144644 21 180 1.6 6.4 0.00 0.00 0.00 66 1017.3
20170526144143 21 122 1.6 6.4 0.00 0.00 0.00 64 1017.3
20170526143642 21 196 1.6 4.8 0.00 0.00 0.00 71 1017.3
20170526143141 21 55 1.6 6.4 0.00 0.00 0.00 68 1017.3
20170526142640 21 126 1.6 6.4 0.00 0.00 0.00 69 1017.3
20170526142104 20 134 1.6 4.8 0.00 0.00 0.00 71 1017.3
20170526141603 20 296 1.6 4.8 0.00 0.00 0.00 71 1017.3
20170526141102 20 103 1.6 4.8 0.00 0.00 0.00 73 1017.3
20170526140601 20 33 1.6 4.8 0.00 0.00 0.00 72 1017.3
20170526140059 20 129 3.2 4.8 0.00 0.00 0.00 73 1017.6
20170526135558 19 168 3.2 6.4 0.00 0.00 0.00 76 1017.6
20170526135057 19 143 3.2 6.4 0.00 0.00 0.00 75 1017.6
20170526134556 19 156 1.6 6.4 0.00 0.00 0.00 74 1017.6
20170526134055 19 174 1.6 6.4 0.00 0.00 0.00 75 1017.6
20170526133554 18 148 1.6 8.0 0.00 0.00 0.00 77 1017.6
20170526133052 19 156 4.8 8.0 0.00 0.00 0.00 74 1017.3
20170526132551 18 255 1.6 4.8 0.00 0.00 0.00 75 1017.3
20170526132050 18 6 1.6 4.8 0.00 0.00 0.00 77 1017.3
20170526131550 18 41 0.0 4.8 0.00 0.00 0.00 73 1017.3
20170526131048 18 19 3.2 4.8 0.00 0.00 0.00 74 1016.9
20170526130548 17 152 0.0 3.2 0.00 0.00 0.00 78 1016.9
20170526130046 17 165 0.0 3.2 0.00 0.00 0.00 77 1016.9
20170526125545 17 135 1.6 4.8 0.00 0.00 0.00 77 1016.9
20170526125043 17 109 0.0 4.8 0.00 0.00 0.00 82 1016.9
20170526124543 16 113 0.0 1.6 0.00 0.00 0.00 80 1016.9
20170526124042 16 74 0.0 1.6 0.00 0.00 0.00 83 1016.9
20170526123540 15 156 0.0 1.6 0.00 0.00 0.00 84 1016.9
20170526123040 15 156 1.6 1.6 0.00 0.00 0.00 86 1016.9
20170526122539 14 160 1.6 1.6 0.00 0.00 0.00 88 1016.9
20170526122038 13 83 0.0 1.6 0.00 0.00 0.00 93 1016.9
20170526121537 12 74 0.0 1.6 0.00 0.00 0.00 94 1016.9
20170526121036 12 74 0.0 1.6 0.00 0.00 0.00 95 1016.9
20170526120535 12 73 0.0 1.6 0.00 0.00 0.00 95 1016.9
20170526120034 12 73 1.6 3.2 0.00 0.00 0.00 95 1016.6
20170526115533 12 73 0.0 3.2 0.00 0.00 0.00 95 1016.6
20170526115032 12 74 0.0 6.4 0.00 0.00 0.00 96 1016.6
20170526114531 11 44 1.6 6.4 0.00 0.00 0.00 96 1016.6
20170526114030 11 45 1.6 6.4 0.00 0.00 0.00 96 1016.6
20170526113530 11 46 1.6 9.7 0.00 0.00 0.00 96 1016.6
20170526113029 11 70 1.6 9.7 0.00 0.00 0.00 97 1016.6
20170526112528 11 39 4.8 8.0 0.00 0.00 0.00 97 1016.6
20170526112026 11 195 3.2 4.8 0.00 0.00 0.00 97 1016.3
20170526111526 11 241 1.6 4.8 0.00 0.00 0.00 97 1016.3
20170526111025 10 201 1.6 4.8 0.00 0.00 0.00 97 1016.3
20170526110524 10 210 3.2 4.8 0.00 0.00 0.00 96 1016.3
20170526110022 10 153 0.0 1.6 0.00 0.00 0.00 96 1016.3
20170526105522 10 153 0.0 1.6 0.00 0.00 0.00 96 1016.3
20170526105020 10 224 0.0 0.0 0.00 0.00 0.00 96 1016.3
20170526104519 10 224 0.0 0.0 0.00 0.00 0.00 96 1016.3
20170526104019 10 224 0.0 0.0 0.00 0.00 0.00 96 1016.3
20170526103518 10 224 0.0 0.0 0.00 0.00 0.00 96 1016.3
20170526103017 10 224 0.0 1.6 0.00 0.00 0.00 96 1016.3
20170526102516 10 224 0.0 1.6 0.00 0.00 0.00 96 1016.3
20170526102015 10 224 0.0 3.2 0.00 0.00 0.00 96 1015.9
20170526101514 10 224 0.0 3.2 0.00 0.00 0.00 96 1015.9
20170526101013 11 224 0.0 4.8 0.00 0.00 0.00 96 1015.9
20170526100512 11 224 0.0 4.8 0.00 0.00 0.00 96 1015.9
20170526100011 11 221 1.6 4.8 0.00 0.00 0.00 96 1015.9
20170526095510 11 136 1.6 1.6 0.00 0.00 0.00 96 1015.9
20170526095009 11 79 0.0 0.0 0.00 0.00 0.00 96 1015.6
20170526094508 11 79 0.0 0.0 0.00 0.00 0.00 96 1015.6
20170526094006 10 79 0.0 0.0 0.00 0.00 0.00 96 1015.6
20170526093505 10 79 0.0 0.0 0.00 0.00 0.00 96 1015.6
20170526093004 10 79 0.0 0.0 0.00 0.00 0.00 96 1015.6
20170526092503 10 79 0.0 0.0 0.00 0.00 0.00 96 1015.6
20170526092002 10 79 0.0 0.0 0.00 0.00 0.00 96 1015.6
20170526091501 11 79 0.0 0.0 0.00 0.00 0.00 96 1015.6
20170526091000 11 79 0.0 0.0 0.00 0.00 0.00 96 1015.6
20170526090459 11 79 0.0 0.0 0.00 0.00 0.00 96 1015.2
20170526085958 11 79 0.0 0.0 0.00 0.00 0.00 96 1015.2
20170526085457 11 79 0.0 0.0 0.00 0.00 0.00 96 1015.2
20170526084956 11 79 0.0 0.0 0.00 0.00 0.00 96 1015.2
20170526084455 11 79 0.0 0.0 0.00 0.00 0.00 96 1015.2
20170526083954 11 79 0.0 0.0 0.00 0.00 0.00 96 1015.2
20170526083452 11 79 0.0 0.0 0.00 0.00 0.00 96 1015.2
20170526082951 11 79 0.0 0.0 0.00 0.00 0.00 96 1014.9
20170526082450 11 79 0.0 0.0 0.00 0.00 0.00 96 1014.9
20170526081949 11 79 0.0 0.0 0.00 0.00 0.00 96 1014.6
20170526081448 11 79 0.0 0.0 0.00 0.00 0.00 96 1014.6
20170526080947 11 79 0.0 0.0 0.00 0.00 0.00 96 1014.6
20170526080446 11 79 0.0 0.0 0.00 0.00 0.00 96 1014.6
20170526075945 11 79 0.0 0.0 0.00 0.00 0.00 96 1014.6
20170526075444 11 79 0.0 0.0 0.00 0.00 0.00 96 1014.2
20170526074942 11 79 0.0 0.0 0.00 0.00 0.00 96 1014.2
20170526074441 11 79 0.0 0.0 0.00 0.00 0.00 96 1014.2
20170526073939 11 79 0.0 0.0 0.00 0.00 0.00 96 1014.2
20170526073438 11 79 0.0 0.0 0.00 0.00 0.00 96 1013.9
20170526072937 11 79 0.0 0.0 0.00 0.00 0.00 96 1013.9
20170526072436 11 79 0.0 0.0 0.00 0.00 0.00 96 1013.9
20170526071934 11 79 0.0 0.0 0.00 0.00 0.00 96 1013.9
20170526071433 11 79 0.0 0.0 0.00 0.00 0.00 95 1013.9
20170526070932 11 79 0.0 1.6 0.00 0.00 0.00 95 1013.9
20170526070432 11 79 0.0 1.6 0.00 0.00 0.00 95 1013.9
20170526065930 11 79 0.0 1.6 0.00 0.00 0.00 95 1013.9
20170526065429 12 80 1.6 1.6 0.00 0.00 0.00 96 1013.9
20170526064928 12 79 0.0 0.0 0.00 0.00 0.00 96 1013.9
20170526064427 12 79 0.0 0.0 0.00 0.00 0.00 95 1013.9
20170526063926 12 79 0.0 0.0 0.00 0.00 0.00 95 1013.9
20170526063425 12 79 0.0 0.0 0.00 0.00 0.00 95 1013.9
20170526062924 12 79 0.0 0.0 0.00 0.00 0.00 95 1013.9
20170526062423 12 79 0.0 1.6 0.00 0.00 0.00 95 1013.9
20170526061922 12 79 0.0 1.6 0.00 0.00 0.00 95 1013.9
20170526061422 12 79 0.0 1.6 0.00 0.00 0.00 95 1013.9
20170526060920 12 79 0.0 0.0 0.00 0.00 0.00 95 1013.5
20170526060419 12 79 0.0 0.0 0.00 0.00 0.00 95 1013.9
20170526055918 12 79 0.0 0.0 0.00 0.00 0.00 95 1013.9
20170526055417 12 79 0.0 0.0 0.00 0.00 0.00 95 1013.5
20170526054916 12 79 0.0 0.0 0.00 0.00 0.00 95 1013.5
20170526054415 12 79 0.0 0.0 0.00 0.00 0.00 95 1013.5
20170526053914 12 79 0.0 0.0 0.00 0.00 0.00 95 1013.5
20170526053413 12 79 0.0 0.0 0.00 0.00 0.00 95 1013.5
20170526052913 12 79 0.0 0.0 0.00 0.00 0.00 95 1013.5
20170526052412 12 79 0.0 0.0 0.00 0.00 0.00 95 1013.5
20170526051911 12 79 0.0 0.0 0.00 0.00 0.00 95 1013.5
20170526051410 12 79 0.0 0.0 0.00 0.00 0.00 95 1013.2
20170526050908 12 79 0.0 1.6 0.00 0.00 0.00 95 1013.2
20170526050408 12 79 0.0 1.6 0.00 0.00 0.00 95 1013.2
20170526045907 12 80 0.0 1.6 0.00 0.00 0.00 94 1013.2
20170526045406 12 79 1.6 1.6 0.00 0.00 0.00 95 1013.2
20170526044905 12 79 0.0 0.0 0.00 0.00 0.00 94 1013.2
20170526044404 12 79 0.0 0.0 0.00 0.00 0.00 94 1013.2
20170526043903 12 80 0.0 0.0 0.00 0.00 0.00 94 1013.2
20170526043402 12 80 0.0 0.0 0.00 0.00 0.00 94 1012.9
20170526042901 12 79 0.0 0.0 0.00 0.00 0.00 94 1012.9
20170526042400 12 80 0.0 0.0 0.00 0.00 0.00 94 1012.9
20170526041859 12 80 0.0 0.0 0.00 0.00 0.00 94 1012.9
20170526041358 12 80 0.0 0.0 0.00 0.00 0.00 93 1012.9
20170526040857 12 81 0.0 0.0 0.00 0.00 0.00 94 1012.5
20170526040356 12 79 0.0 0.0 0.00 0.00 0.00 93 1012.9
20170526035855 12 81 0.0 0.0 0.00 0.00 0.00 93 1012.5
20170526035354 12 80 0.0 0.0 0.00 0.00 0.00 93 1012.5
20170526034852 13 81 0.0 0.0 0.00 0.00 0.00 93 1012.5
20170526034352 13 79 0.0 0.0 0.00 0.00 0.00 93 1012.5
20170526033850 13 81 0.0 0.0 0.00 0.00 0.00 93 1012.5
20170526033349 13 79 0.0 0.0 0.00 0.00 0.00 93 1012.5
20170526032849 13 81 0.0 0.0 0.00 0.00 0.00 92 1012.5
20170526032348 13 79 0.0 0.0 0.00 0.00 0.00 92 1012.2
20170526031847 13 79 0.0 0.0 0.00 0.00 0.00 92 1012.2
20170526031345 13 80 0.0 0.0 0.00 0.00 0.00 92 1012.2
20170526030845 13 81 0.0 0.0 0.00 0.00 0.00 91 1012.2
20170526030344 13 81 0.0 0.0 0.00 0.00 0.00 91 1012.2
20170526025843 13 79 0.0 0.0 0.00 0.00 0.00 91 1011.9
20170526025342 13 80 0.0 0.0 0.00 0.00 0.00 90 1011.9
20170526024841 14 81 0.0 0.0 0.00 0.00 0.00 89 1011.9
20170526024340 14 80 0.0 0.0 0.00 0.00 0.00 89 1011.9
20170526023839 14 79 0.0 0.0 0.00 0.00 0.00 89 1011.5
20170526023338 14 79 0.0 0.0 0.00 0.00 0.00 88 1011.5
20170526022837 15 81 0.0 0.0 0.00 0.00 0.00 88 1011.5
20170526022336 15 79 0.0 0.0 0.00 0.00 0.00 88 1011.5
20170526021835 15 79 0.0 0.0 0.00 0.00 0.00 88 1011.2
20170526021334 15 79 0.0 0.0 0.00 0.00 0.00 88 1011.2
20170526020833 15 79 0.0 0.0 0.00 0.00 0.00 87 1011.2
20170526020332 15 79 0.0 0.0 0.00 0.00 0.00 86 1010.8
20170526015831 15 79 0.0 0.0 0.00 0.00 0.00 86 1010.8
20170526015330 16 79 0.0 0.0 0.00 0.00 0.00 85 1010.8
20170526014829 16 79 0.0 0.0 0.00 0.00 0.00 86 1010.8
20170526014328 16 79 0.0 0.0 0.00 0.00 0.00 85 1010.5
20170526013827 16 79 0.0 0.0 0.00 0.00 0.00 84 1010.8
20170526013326 16 79 0.0 0.0 0.00 0.00 0.00 84 1010.5
20170526012825 16 79 0.0 0.0 0.00 0.00 0.00 83 1010.5
20170526012324 16 79 0.0 1.6 0.00 0.00 0.00 83 1010.2
20170526011824 16 79 0.0 1.6 0.00 0.00 0.00 82 1010.2
20170526011323 16 79 0.0 1.6 0.00 0.00 0.00 82 1010.2
20170526010822 16 79 1.6 1.6 0.00 0.00 0.00 82 1010.2
20170526010321 16 97 0.0 1.6 0.00 0.00 0.00 81 1010.2
20170526005820 16 97 1.6 1.6 0.00 0.00 0.00 79 1010.2
20170526005319 17 97 0.0 1.6 0.00 0.00 0.00 80 1010.2
20170526004818 17 97 0.0 1.6 0.00 0.00 0.00 78 1010.2
20170526004317 17 97 0.0 6.4 0.00 0.00 0.00 77 1010.2
20170526003816 17 96 1.6 6.4 0.00 0.00 0.00 75 1009.8
20170526003314 18 111 1.6 8.0 0.00 0.00 0.00 74 1009.8
20170526002813 18 130 4.8 8.0 0.00 0.00 0.00 73 1009.8
20170526002312 18 119 3.2 9.7 0.00 0.00 0.00 71 1009.8
20170526001811 18 167 1.6 9.7 0.00 0.00 0.00 72 1009.8
20170526001310 18 148 3.2 12.9 0.00 0.00 0.00 69 1009.5
20170526000808 18 141 4.8 12.9 0.00 0.00 0.00 69 1009.5
20170526000308 19 8 3.2 11.3 0.00 0.00 0.00 70 1009.5
20170525235806 19 165 3.2 12.9 0.00 0.00 0.00 67 1009.5
20170525235305 19 172 3.2 12.9 0.00 0.00 0.00 64 1009.1
20170525234804 19 178 3.2 12.9 0.00 0.00 0.00 69 1009.1
20170525234303 20 187 4.8 12.9 0.00 0.00 0.00 65 1009.1
20170525233802 20 129 3.2 16.1 0.00 0.00 0.00 64 1009.1
20170525233301 20 168 4.8 16.1 0.00 0.00 0.00 64 1009.1
20170525232759 20 135 3.2 12.9 0.00 0.00 0.00 64 1009.1
20170525232258 20 137 3.2 9.7 0.00 0.00 0.00 64 1009.1
20170525231757 20 134 1.6 9.7 0.00 0.00 0.00 65 1009.1
20170525231256 20 182 3.2 9.7 0.00 0.00 0.00 64 1009.1
20170525230755 20 173 4.8 9.7 0.00 0.00 0.00 64 1009.1
20170525230254 20 162 3.2 9.7 0.00 0.00 0.00 66 1008.8
20170525225753 20 137 3.2 8.0 0.00 0.00 0.00 64 1008.8
20170525225252 20 182 3.2 8.0 0.00 0.00 0.00 66 1008.8
20170525224751 20 152 1.6 8.0 0.00 0.00 0.00 64 1008.8
20170525224250 20 144 3.2 11.3 0.00 0.00 0.00 65 1008.8
20170525223749 20 184 3.2 11.3 0.00 0.00 0.00 63 1008.8
20170525223248 20 196 4.8 14.5 0.00 0.00 0.00 63 1008.5
20170525222747 20 161 6.4 14.5 0.00 0.00 0.00 60 1008.5
20170525222246 21 152 4.8 16.1 0.00 0.00 0.00 60 1008.5
20170525221745 21 155 8.0 16.1 0.00 0.00 0.00 59 1008.5
20170525221244 21 203 3.2 16.1 0.00 0.00 0.00 61 1008.5
20170525220743 21 185 4.8 22.5 0.00 0.00 0.00 59 1008.5
20170525220242 21 149 6.4 22.5 0.00 0.00 0.00 58 1008.5
20170525215741 21 179 6.4 19.3 0.00 0.00 0.00 59 1008.5
20170525215240 21 153 8.0 24.1 0.00 0.00 0.00 58 1008.1
20170525214740 21 160 9.7 24.1 0.00 0.00 0.00 57 1008.1
20170525214239 21 169 11.3 22.5 0.00 0.00 0.00 59 1008.1
20170525213737 21 154 4.8 12.9 0.00 0.00 0.00 62 1008.1
20170525213236 21 146 3.2 16.1 0.00 0.00 0.00 60 1008.1
20170525212735 21 174 1.6 20.9 0.00 0.00 0.00 61 1008.1
20170525212232 21 132 4.8 25.7 0.00 0.00 0.00 61 1008.1
20170525211731 21 160 9.7 25.7 0.00 0.00 0.00 57 1007.8
20170525211231 21 157 6.4 30.6 0.00 0.00 0.00 61 1007.8
20170525210730 21 184 4.8 30.6 0.00 0.00 0.00 61 1007.8
20170525210229 20 194 3.2 24.1 0.00 0.00 0.00 63 1007.5
20170525205728 20 150 9.7 24.1 0.00 0.00 0.00 61 1007.8
20170525205227 20 165 8.0 19.3 0.00 0.00 0.00 63 1007.5
20170525204726 20 154 4.8 19.3 0.00 0.00 0.00 62 1007.5
20170525204225 20 141 4.8 24.1 0.00 0.00 0.00 63 1007.5
20170525203724 20 163 6.4 24.1 0.00 0.00 0.00 60 1007.5
20170525203223 20 166 4.8 17.7 0.00 0.00 0.00 63 1007.5
20170525202721 20 143 6.4 22.5 0.00 0.00 0.00 65 1007.5
20170525202220 20 166 8.0 22.5 0.00 0.00 0.00 62 1007.5
20170525201719 20 159 9.7 22.5 0.00 0.00 0.00 61 1007.5
20170525201218 20 157 6.4 12.9 0.00 0.00 0.00 61 1007.5
20170525200717 20 186 3.2 14.5 0.00 0.00 0.00 62 1007.5
20170525200216 20 167 4.8 14.5 0.00 0.00 0.00 62 1007.5
20170525195714 20 163 4.8 16.1 0.00 0.00 0.00 62 1007.5
20170525195212 20 133 4.8 16.1 0.00 0.00 0.00 61 1007.1
20170525194711 20 142 3.2 14.5 0.00 0.00 0.00 64 1007.5
20170525194210 20 129 3.2 17.7 0.00 0.00 0.00 61 1007.1
20170525193710 21 137 4.8 17.7 0.00 0.05 0.00 60 1007.1
20170525193209 21 149 6.4 14.5 0.00 0.28 0.00 62 1007.1
20170525192708 21 354 3.2 16.1 0.00 0.28 0.00 61 1007.1
20170525192207 21 133 4.8 16.1 0.00 0.28 0.00 60 1007.1
20170525191706 21 115 4.8 22.5 0.00 0.28 0.00 55 1007.1
20170525191205 21 87 4.8 22.5 0.00 0.28 0.00 57 1007.1
20170525190703 21 159 8.0 20.9 0.00 0.28 0.00 59 1007.1
20170525190202 21 186 4.8 25.7 0.00 0.28 0.00 57 1006.8
20170525185701 21 217 4.8 25.7 0.00 0.28 0.00 58 1006.8